Regional Weather Roundup
Issued by NWS

Home | Current Version | Previous Version | Graphics & Text | Print | Product List | Glossary On
Versions: 1 2 3 4 5 6 7 8 9 10 11 12 13 14 15 16 17 18 19 20 21 22 23 24 25 26 27 28 29 30 31 32 33 34 35 36 37 38 39 40 41 42 43 44 45 46 47 48 49 50
245
ASUS43 KDMX 240006
RWRIA

WEATHER ROUNDUP FOR IOWA
NATIONAL WEATHER SERVICE DES MOINES IA
700 PM CDT MON APR 23 2018

NOTE: "FAIR" INDICATES FEW OR NO CLOUDS BELOW 12,000 FEET WITH NO
SIGNIFICANT WEATHER AND/OR OBSTRUCTIONS TO VISIBILITY.

* - THESE STATIONS ARE NOT NWS STATIONS...THUS NOT UNDER NWS
QUALITY CONTROL.  THEY ALSO DO NOT REPORT WEATHER SUCH
AS PRECIPITATION OR FOG.

IAZ001>003-012>014-020>022-031>034-043>046-240100-
   NORTHWEST IOWA

CITY           SKY/WX    TMP DP  RH WIND       PRES   REMARKS
CARROLL *      CLOUDY    72  34  25 NE12      30.08S
CHEROKEE *     SUNNY     65  38  36 E7        30.11S
DENISON *      SUNNY     70  32  24 E10       30.09S
LE MARS *      SUNNY     68  34  28 E12       30.09S
ORANGE CITY *  SUNNY     68  37  32 E7        30.11S
SHELDON *      SUNNY     64  36  34 E10       30.10S
SIOUX CITY     SUNNY     71  32  23 E10       30.07S
6HR MIN TEMP:  67; 6HR MAX TEMP:  73;

SPENCER        SUNNY     64  39  39 E9        30.13F
6HR MIN TEMP:  64; 6HR MAX TEMP:  68;

STORM LAKE *   SUNNY     64  39  39 NE12      30.11S
$$

IAZ055>058-069>071-079>083-090>094-240100-
   SOUTHWEST IOWA

CITY           SKY/WX    TMP DP  RH WIND       PRES   REMARKS
ATLANTIC *     SUNNY     70  30  23 NE9       30.06S
AUDUBON *      SUNNY     70  27  19 NE8       30.09S
CLARINDA *     SUNNY     72  28  20 NE8       30.07S
COUNCIL BLFS * SUNNY     70  30  23 NE8       30.06S
CRESTON *      SUNNY     70  28  21 NE10      30.07S
HARLAN  *      SUNNY     72  28  20 NE7       30.10S
LAMONI         SUNNY     69  30  23 NE12      30.04F
6HR MIN TEMP:  69; 6HR MAX TEMP:  73;

RED OAK *      SUNNY     70  32  24 MISG      30.06S
SHENANDOAH *   SUNNY     72  32  23 E10       30.05F
$$

IAZ047>049-059>061-072>074-084-240100-
   CENTRAL IOWA

CITY           SKY/WX    TMP DP  RH WIND       PRES   REMARKS
AMES           SUNNY     70  30  22 NE10      30.07S
6HR MIN TEMP:  67; 6HR MAX TEMP:  73;

ANKENY *       SUNNY     70  28  21 NE12      30.07S
BOONE *        SUNNY     68  30  24 NE14      30.07S
CHARITON *     SUNNY     70  30  23 NE12G20   30.04S
DES MOINES     MOSUNNY   71  27  19 NE12      30.06S
6HR MIN TEMP:  68; 6HR MAX TEMP:  74;

GRINNELL*      SUNNY     68  27  21 NE10      30.07F
KNOXVILLE *    SUNNY     70  27  19 NE13      30.04S
MARSHALLTOWN   SUNNY     69  30  23 NE10      30.06F
6HR MIN TEMP:  66; 6HR MAX TEMP:  72;

NEWTON *       SUNNY     68  30  24 NE12G17   30.06S
PELLA *        SUNNY     71  24  17 NE8       30.06S
PERRY *        FAIR      68  19  15 NE9       30.06F
$$

IAZ004>006-015-016-023>025-035-036-240100-
   NORTH CENTRAL IOWA

CITY           SKY/WX    TMP DP  RH WIND       PRES   REMARKS
ALGONA *       SUNNY     63  45  51 NE8       30.13S
CLARION *      SUNNY     66  39  37 NE12      30.11S
ESTHERVILLE    SUNNY     59  44  57 NE5       30.14S
6HR MIN TEMP:  57; 6HR MAX TEMP:  60;

FORT DODGE *   SUNNY     66  41  40 NE9       30.11S
MASON CITY     SUNNY     64  43  46 NE8       30.13S
6HR MIN TEMP:  63; 6HR MAX TEMP:  67;

FOREST CITY *  FAIR      63  41  45 NE5       30.12F
WEBSTER CITY * SUNNY     66  37  34 NE9       30.08S
IOWA FALLS *   FAIR      68  34  28 N9        30.10S
$$

IAZ007>011-017>019-026>030-037>042-050>054-066-240100-
   NORTHEAST IOWA

CITY           SKY/WX    TMP DP  RH WIND       PRES   REMARKS
CEDAR RAPIDS   FAIR      69  27  20 NE15      30.05F
6HR MIN TEMP:  68; 6HR MAX TEMP:  72;

CHARLES CITY * FAIR      64  36  34 N8        30.11S
CLINTON *      FAIR      67  34  29 NE13      30.06S
DECORAH *      FAIR      66  27  22 NE9       30.09F
DUBUQUE        FAIR      63  27  25 NE9       30.09S
6HR MIN TEMP:  63; 6HR MAX TEMP:  69;

MONTICELLO *   FAIR      66  27  22 E10G16    30.07F
OELWEIN *      FAIR      66  30  26 NE9       30.09S
WATERLOO       FAIR      67  31  26 NE9       30.08S
6HR MIN TEMP:  66; 6HR MAX TEMP:  71;

$$

IAZ064-065-067-068-078-240100-
   EAST CENTRAL IOWA

CITY           SKY/WX    TMP DP  RH WIND       PRES   REMARKS
DAVENPORT      FAIR      68  30  24 NE14      30.07S
6HR MIN TEMP:  66; 6HR MAX TEMP:  72;

IOWA CITY      FAIR      67  29  24 NE9       30.07S
6HR MIN TEMP:  66; 6HR MAX TEMP:  71;

MT. PLEASANT * PTCLDY    66  30  26 NE8       30.03S
MUSCATINE *    FAIR      66  30  26 NE13      30.05S
QUAD CITIES    FAIR      71  32  23 NE10      30.03S
6HR MIN TEMP:  69; 6HR MAX TEMP:  75;

$$

IAZ062-063-075>077-085>089-095>099-240100-
   SOUTHEAST IOWA

CITY           SKY/WX    TMP DP  RH WIND       PRES   REMARKS
BURLINGTON     PTCLDY    70  31  23 E10       30.01F
6HR MIN TEMP:  69; 6HR MAX TEMP:  74;

FAIRFIELD *    CLOUDY    66  27  22 NE10      30.04S
FORT MADISON * PTCLDY    70  34  26 E8        30.03S
KEOKUK *       PTCLDY    68  32  26 NE9G17    30.01S
OSKALOOSA *    FAIR      70  22  16 E14       30.05S
CENTERVILLE *    N/A     68  27  21 NE12      30.05F
OTTUMWA        MOCLDY    69  26  20 E12       30.05S
6HR MIN TEMP:  68; 6HR MAX TEMP:  72;

WASHINGTON *   MOCLDY    68  25  19 NE15      30.06S
$$

ABBREVIATIONS USED IN REMARKS
   TC - TEMPERATURES IN CELSIUS
  WCI - WIND CHILL INDEX
   HX - HEAT INDEX
  VSB - VISIBILITY
$$





USA.gov is the U.S. government's official web portal to all federal, state and local government web resources and services.